EN

Hourly Weather Xocasan

Today, 30 November, Monday

Time Temperature Precipitation Wind Pressure Humidity
00:00 +7°C° 0.9 mm 4 mps 767 mmHg 85%
01:00 +7°C° 0.4 mm 4 mps 767 mmHg 86%
02:00 +6°C° 0.4 mm 4 mps 767 mmHg 87%
03:00 +6°C° 0 mm 4 mps 766 mmHg 87%
04:00 +6°C° 0.2 mm 4 mps 766 mmHg 86%
05:00 +6°C° 0.2 mm 4 mps 766 mmHg 86%
06:00 +6°C° 0.2 mm 5 mps 766 mmHg 85%
07:00 +6°C° 0.2 mm 5 mps 767 mmHg 84%
08:00 +7°C° 0.2 mm 6 mps 767 mmHg 83%
09:00 +6°C° 0 mm 8 mps 767 mmHg 80%
10:00 +6°C° 0.3 mm 8 mps 767 mmHg 80%
11:00 +6°C° 0.3 mm 9 mps 767 mmHg 80%
12:00 +6°C° 0.3 mm 9 mps 767 mmHg 80%
13:00 +6°C° 0.2 mm 9 mps 766 mmHg 80%
14:00 +6°C° 0.2 mm 8 mps 766 mmHg 80%
15:00 +6°C° 0.2 mm 7 mps 766 mmHg 80%
16:00 +6°C° 0.1 mm 7 mps 766 mmHg 80%
17:00 +7°C° 0.1 mm 6 mps 766 mmHg 80%
18:00 +7°C° 0.1 mm 6 mps 766 mmHg 80%
19:00 +7°C° 0.1 mm 5 mps 766 mmHg 80%
20:00 +7°C° 0.1 mm 5 mps 766 mmHg 80%
21:00 +7°C° 0.1 mm 5 mps 766 mmHg 81%
22:00 +7°C° 0.1 mm 4 mps 766 mmHg 82%
23:00 +7°C° 0.1 mm 4 mps 766 mmHg 83%

Tomorrow, 1 December, Tuesday

Time Temperature Precipitation Wind Pressure Humidity
00:00 +8°C° 0.1 mm 3 mps 766 mmHg 84%
01:00 +8°C° 0.1 mm 3 mps 765 mmHg 85%
02:00 +8°C° 0.1 mm 3 mps 765 mmHg 86%
03:00 +8°C° 0.1 mm 2 mps 765 mmHg 87%
04:00 +8°C° 0.1 mm 2 mps 765 mmHg 86%
05:00 +8°C° 0.1 mm 2 mps 765 mmHg 85%
06:00 +8°C° 0.1 mm 2 mps 765 mmHg 83%
07:00 +10°C° 0 mm 1 mps 765 mmHg 80%
08:00 +10°C° 0 mm 1 mps 765 mmHg 77%
09:00 +10°C° 0 mm 1 mps 765 mmHg 74%
10:00 +11°C° 0 mm 1 mps 765 mmHg 71%
11:00 +10°C° 0 mm 2 mps 765 mmHg 68%
12:00 +10°C° 0 mm 2 mps 764 mmHg 64%
13:00 +12°C° 0 mm 2 mps 764 mmHg 63%
14:00 +12°C° 0 mm 2 mps 764 mmHg 62%
15:00 +12°C° 0 mm 2 mps 764 mmHg 61%
16:00 +12°C° 0 mm 2 mps 764 mmHg 64%
17:00 +10°C° 0 mm 2 mps 764 mmHg 67%
18:00 +11°C° 0 mm 1 mps 765 mmHg 70%
19:00 +10°C° 0 mm 1 mps 765 mmHg 71%
20:00 +10°C° 0 mm 1 mps 765 mmHg 72%
21:00 +10°C° 0 mm 1 mps 765 mmHg 74%
22:00 +10°C° 0 mm 1 mps 765 mmHg 75%
23:00 +10°C° 0 mm 1 mps 765 mmHg 76%

Day after tomorrow, 2 December, Wednesday

Time Temperature Precipitation Wind Pressure Humidity
00:00 +9°C° 0 mm 1 mps 765 mmHg 77%
01:00 +8°C° 0 mm 2 mps 765 mmHg 77%
02:00 +8°C° 0 mm 2 mps 765 mmHg 78%
03:00 +8°C° 0 mm 2 mps 766 mmHg 79%
04:00 +8°C° 0 mm 2 mps 766 mmHg 80%
05:00 +8°C° 0 mm 2 mps 766 mmHg 80%
06:00 +8°C° 0 mm 3 mps 766 mmHg 81%
07:00 +9°C° 0 mm 2 mps 766 mmHg 76%
08:00 +9°C° 0 mm 2 mps 767 mmHg 72%
09:00 +10°C° 0 mm 2 mps 767 mmHg 68%
10:00 +11°C° 0 mm 3 mps 767 mmHg 66%
11:00 +11°C° 0 mm 3 mps 767 mmHg 64%
12:00 +11°C° 0 mm 4 mps 767 mmHg 62%
13:00 +11°C° 0 mm 4 mps 767 mmHg 67%
14:00 +10°C° 0 mm 5 mps 767 mmHg 71%
15:00 +10°C° 0 mm 6 mps 766 mmHg 76%
16:00 +10°C° 0 mm 6 mps 767 mmHg 79%
17:00 +9°C° 0 mm 6 mps 767 mmHg 83%
18:00 +9°C° 0 mm 6 mps 767 mmHg 86%
19:00 +9°C° 0 mm 6 mps 768 mmHg 84%
20:00 +8°C° 0 mm 6 mps 768 mmHg 82%
21:00 +8°C° 0 mm 6 mps 768 mmHg 80%
22:00 +8°C° 0 mm 5 mps 768 mmHg 81%
23:00 +8°C° 0 mm 5 mps 768 mmHg 81%

3 December, Thursday

Time Temperature Precipitation Wind Pressure Humidity
00:00 +7°C° 0 mm 5 mps 768 mmHg 81%
01:00 +7°C° 0 mm 5 mps 768 mmHg 80%
02:00 +7°C° 0 mm 5 mps 768 mmHg 80%
03:00 +7°C° 0 mm 4 mps 768 mmHg 79%
04:00 +7°C° 0 mm 5 mps 768 mmHg 80%
05:00 +7°C° 0 mm 5 mps 769 mmHg 81%
06:00 +6°C° 0 mm 5 mps 769 mmHg 82%
07:00 +7°C° 0 mm 5 mps 769 mmHg 80%
08:00 +7°C° 0 mm 4 mps 769 mmHg 79%
09:00 +7°C° 0 mm 4 mps 770 mmHg 77%
10:00 +7°C° 0 mm 4 mps 770 mmHg 76%
11:00 +8°C° 0 mm 4 mps 769 mmHg 74%
12:00 +8°C° 0 mm 4 mps 769 mmHg 73%
13:00 +8°C° 0 mm 4 mps 769 mmHg 72%
14:00 +8°C° 0 mm 4 mps 769 mmHg 72%
15:00 +8°C° 0 mm 4 mps 769 mmHg 72%
16:00 +9°C° 0 mm 3 mps 769 mmHg 72%
17:00 +9°C° 0 mm 3 mps 769 mmHg 72%
18:00 +9°C° 0 mm 3 mps 770 mmHg 73%
19:00 +8°C° 0 mm 3 mps 770 mmHg 73%
20:00 +8°C° 0 mm 3 mps 770 mmHg 73%
21:00 +8°C° 0 mm 3 mps 770 mmHg 73%
22:00 +8°C° 0 mm 3 mps 770 mmHg 72%
23:00 +8°C° 0 mm 3 mps 770 mmHg 72%

4 December, Friday

Time Temperature Precipitation Wind Pressure Humidity
00:00 +8°C° 0 mm 3 mps 770 mmHg 71%
01:00 +8°C° 0 mm 3 mps 769 mmHg 71%
02:00 +8°C° 0 mm 3 mps 769 mmHg 71%
03:00 +8°C° 0 mm 3 mps 769 mmHg 72%
04:00 +8°C° 0 mm 3 mps 769 mmHg 72%
05:00 +8°C° 0 mm 3 mps 769 mmHg 72%
06:00 +8°C° 0 mm 3 mps 769 mmHg 72%
07:00 +8°C° 0 mm 3 mps 769 mmHg 71%
08:00 +8°C° 0 mm 3 mps 769 mmHg 69%
09:00 +9°C° 0 mm 3 mps 769 mmHg 68%
10:00 +9°C° 0 mm 3 mps 769 mmHg 67%
11:00 +9°C° 0 mm 3 mps 769 mmHg 67%
12:00 +10°C° 0 mm 3 mps 768 mmHg 66%
13:00 +10°C° 0 mm 3 mps 768 mmHg 66%
14:00 +10°C° 0 mm 4 mps 768 mmHg 66%
15:00 +10°C° 0 mm 4 mps 768 mmHg 66%
16:00 +10°C° 0 mm 4 mps 768 mmHg 68%
17:00 +8°C° 0 mm 4 mps 768 mmHg 71%
18:00 +8°C° 0 mm 4 mps 768 mmHg 73%
19:00 +9°C° 0 mm 3 mps 768 mmHg 76%
20:00 +9°C° 0 mm 3 mps 767 mmHg 78%
21:00 +9°C° 0 mm 2 mps 767 mmHg 80%
22:00 +9°C° 0.3 mm 2 mps 767 mmHg 83%
23:00 +9°C° 0.3 mm 2 mps 767 mmHg 86%

5 December, Saturday

Time Temperature Precipitation Wind Pressure Humidity
00:00 +9°C° 0.3 mm 2 mps 767 mmHg 88%
01:00 +9°C° 0.8 mm 3 mps 767 mmHg 89%
02:00 +9°C° 0.8 mm 3 mps 766 mmHg 89%
03:00 +8°C° 0.8 mm 4 mps 766 mmHg 89%
04:00 +8°C° 1 mm 4 mps 766 mmHg 88%
05:00 +8°C° 1 mm 5 mps 766 mmHg 87%
06:00 +8°C° 1 mm 5 mps 766 mmHg 86%
07:00 +8°C° 1.2 mm 5 mps 766 mmHg 86%
08:00 +8°C° 1.2 mm 5 mps 766 mmHg 87%
09:00 +8°C° 1.2 mm 5 mps 766 mmHg 88%
10:00 +9°C° 0.7 mm 5 mps 766 mmHg 87%
11:00 +9°C° 0.7 mm 5 mps 766 mmHg 85%
12:00 +9°C° 0.7 mm 5 mps 766 mmHg 84%
13:00 +9°C° 0.6 mm 5 mps 765 mmHg 85%
14:00 +9°C° 0.6 mm 6 mps 765 mmHg 86%
15:00 +9°C° 0.6 mm 6 mps 765 mmHg 87%
16:00 +8°C° 0.6 mm 6 mps 765 mmHg 86%
17:00 +8°C° 0.6 mm 6 mps 766 mmHg 85%
18:00 +8°C° 0.6 mm 6 mps 766 mmHg 84%
19:00 +8°C° 0.6 mm 6 mps 766 mmHg 84%
20:00 +7°C° 0.6 mm 5 mps 766 mmHg 84%
21:00 +7°C° 0.6 mm 5 mps 766 mmHg 84%
22:00 +7°C° 0.4 mm 5 mps 766 mmHg 82%
23:00 +7°C° 0.4 mm 5 mps 766 mmHg 81%
Show more

We Need Your Consent

Meteoprog and our Service Providers may store and access personal data such as cookies, device identifiers or other similar technologies on your device and process such data to personalise content and ads, as well as provide social media features and to analyse the traffic.

  • Store and/or access information on your device

    Cookies, device identifiers or other information can be stored or accessed on your device for the purposes indicated above.

  • Personalised ads and content, ad and content measurement, audience insights, and products development

    Ads and content can be personalised based on a profile. More data can be added to better personalise ads and content. Ad and content performance can be measured. Insights about the audience who saw the ads and content can be derived. Such data can be used to develop or improve user’s experience, systems and software.

By clicking ‘I Agree’ you will allow the use of indicated cookies, device identifiers, web beacons or other similar technologies. Your settings can be changed in the browser on your device.

For certain purposes, legitimate interests may be relied on, rather than consent. You can read more about this in our Privacy and Cookie Policy.